China Lake, CA

3:06 PM PDT on April 23, 2018 (GMT -0700)
China Lake NAWS

Weather History for KNID - July, 2013

Change the Weather History Date:

Thursday, July 25, 2013

  Actual Average Record
Temperature  
Mean Temperature 94 °F -  
Max Temperature 111 °F 100 °F 111 °F (1996)
Min Temperature 78 °F 72 °F 61 °F (2015)
Cooling Degree Days 30    
Growing Degree Days 44 (Base 50)    
Moisture  
Dew Point 49 °F    
Average Humidity 23    
Maximum Humidity 39    
Minimum Humidity 11    
Precipitation  
Precipitation 0.00 in - - ()
Sea Level Pressure  
Sea Level Pressure 29.84 in    
Wind  
Wind Speed 6 mph (SSW)    
Max Wind Speed 15 mph    
Max Gust Speed 25 mph    
Visibility 10 miles    
Events      
Averages and records for this station are not official NWS values.
T = Trace of Precipitation, MM = Missing Value Source: NWS Daily Summary

Daily Weather History Graph

Daily Weather History Graph

Search for Another Location

Airport or City:

Astronomy

Jul. 25, 2013 Rise Set
Actual Time 5:53 AM PDT 8:00 PM PDT
Civil Twilight 5:25 AM PDT 8:28 PM PDT
Nautical Twilight 4:50 AM PDT 9:03 PM PDT
Astronomical Twilight 4:12 AM PDT 9:41 PM PDT
Moon 9:54 PM PDT (7/25) 9:19 AM PDT (7/25)
Length of Visible Light 15h 03m
Length of Day
14h 06m
Waning Gibbous, 87% of the Moon is Illuminated
Jul 25
Waning Gibbous
Jul 29
Last Quarter
Aug 6
New
Aug 14
First Quarter
Aug 20
Full

Hourly Weather History & Observations

Time (PDT) Temp. Heat Index Dew Point Humidity Pressure Visibility Wind Dir Wind Speed Gust Speed Precip Events Conditions
12:56 AM 84.0 °F - 50.0 °F 31% 29.80 in 10.0 mi South 6.9 mph - N/A   Clear
1:56 AM 84.9 °F - 52.0 °F 32% 29.79 in 10.0 mi South 9.2 mph - N/A   Clear
2:56 AM 81.0 °F - 51.1 °F 35% 29.81 in 10.0 mi West 4.6 mph - N/A   Clear
3:56 AM 80.1 °F - 52.0 °F 38% 29.81 in 10.0 mi SSW 4.6 mph - N/A   Clear
4:56 AM 79.0 °F - 51.1 °F 38% 29.83 in 10.0 mi Calm Calm - N/A   Clear
5:56 AM 78.1 °F - 51.1 °F 39% 29.84 in 10.0 mi South 3.5 mph - N/A   Scattered Clouds
6:56 AM 82.0 °F - 51.1 °F 34% 29.86 in 10.0 mi Calm Calm - N/A   Scattered Clouds
7:56 AM 87.1 °F - 51.1 °F 29% 29.88 in 10.0 mi NNW 3.5 mph - N/A   Mostly Cloudy
8:56 AM 91.0 °F 88.5 °F 53.1 °F 27% 29.88 in 10.0 mi Calm Calm - N/A   Mostly Cloudy
9:56 AM 96.1 °F - 52.0 °F 22% 29.88 in 10.0 mi Variable 4.6 mph - N/A   Partly Cloudy
10:56 AM 100.0 °F - 48.9 °F 18% 29.87 in 10.0 mi Calm Calm - N/A   Scattered Clouds
11:56 AM 104.0 °F - 48.0 °F 15% 29.87 in 10.0 mi Variable 4.6 mph - N/A   Scattered Clouds
12:56 PM 108.0 °F - 46.9 °F 13% 29.85 in 10.0 mi Variable 4.6 mph - N/A   Scattered Clouds
1:56 PM 109.9 °F - 45.0 °F 11% 29.83 in 10.0 mi WSW 5.8 mph - N/A   Scattered Clouds
2:56 PM 111.0 °F - 46.0 °F 11% 29.82 in 10.0 mi SSE 13.8 mph 20.7 mph N/A   Mostly Cloudy
3:56 PM 111.0 °F - 45.0 °F 11% 29.80 in 10.0 mi SSE 8.1 mph 18.4 mph N/A   Mostly Cloudy
4:56 PM 109.9 °F - 45.0 °F 11% 29.78 in 10.0 mi South 12.7 mph 19.6 mph N/A   Mostly Cloudy
5:56 PM 108.0 °F - 46.9 °F 13% 29.78 in 10.0 mi SW 15.0 mph - N/A   Mostly Cloudy
6:56 PM 106.0 °F - 48.0 °F 14% 29.80 in 10.0 mi SW 11.5 mph 25.3 mph N/A   Mostly Cloudy
7:56 PM 102.0 °F - 46.0 °F 15% 29.81 in 10.0 mi SW 12.7 mph - N/A   Scattered Clouds
8:56 PM 97.0 °F - 46.0 °F 18% 29.85 in 10.0 mi SW 6.9 mph - N/A   Partly Cloudy
9:56 PM 93.9 °F - 46.0 °F 19% 29.86 in 10.0 mi South 6.9 mph - N/A   Partly Cloudy
10:56 PM 93.0 °F - 46.0 °F 20% 29.87 in 10.0 mi South 9.2 mph - N/A   Clear
11:56 PM 90.0 °F 88.6 °F 57.0 °F 33% 29.88 in 10.0 mi South 6.9 mph - 0.00 in   Clear